Tracking 19795 objects as of 20-Jul-2019
HD Live streaming from Space Station
objects crossing your sky now

THORAD DELTA 1 DEB

Track THORAD DELTA 1 DEB now!
10-day predictions


NORAD ID: 8404
Int'l Code: 1974-089CG
Perigee: 1,222.9 km
Apogee: 1,353.8 km
Inclination: 101.3 °
Period: 111.2 minutes
Semi major axis: 7659 km
RCS: 0.0827 m2 (small)
Launch date: November 15, 1974
Source: United States (US)
Launch site: AIR FORCE WESTERN TEST RANGE (AFWTR)

Note: This is SATELLITE DEBRIS
aabbcc
Your satellite tracking list
Your tracking list is empty




NASA's NSSDC Master Catalog

Two Line Element Set (TLE):
1  8404U 74089CG  19200.78474472 +.00000156 +00000-0 +71453-3 0  9994
2  8404 101.2787 136.5544 0085464 330.4345 083.5752 12.95130959069314
Source of the keplerian elements: AFSPC